BEIDOU 3 (C01)

Last updated on Dec. 12, 2019, 4:25 a.m. UTC

1 36287U 10001A   19345.43131437 -.00000263  00000-0  00000+0 0  9997
2 36287   1.3689  11.4198 0003515 163.7087 199.9537  1.00276949 36319
UTC
Height (km)
Latitude
Longitude
Inclination
Orbital Period
UTC large
Height (km)
Speed (km/s)
/
Latitude / Longitude
Inclination (degrees)
Orbital Period (minutes)
Azimuth
Elevation
Range (km)
Doppler Factor
iOS Compass Heading
iOS Angle

Next 30 passes for location: Hong Kong

Rise time Rise Azimuth (degrees) Set time Set Azimuth (degrees) Duration Max altitude (degrees)

No matching passes for this satellites